Regional Weather Roundup
Issued by NWS

Home | Current Version | Previous Version | Graphics & Text | Print | Product List | Glossary On
Versions: 1 2 3 4 5 6 7 8 9 10 11 12 13 14 15 16 17 18 19 20 21 22 23 24 25 26 27 28 29 30 31 32 33 34 35 36 37 38 39 40 41 42 43 44 45 46 47
240
ASUS44 KJAN 052110
RWRMS

MISSISSIPPI HOURLY WEATHER ROUNDUP
NATIONAL WEATHER SERVICE JACKSON MS
300 PM CST THU MAR 05 2015

NOTE: "FAIR: INDICATES FEW OR NO CLOUDS BELOW 12,000 FEET WITH NO
SIGNIFICANT WEATHER AND/OR OBSTRUCTIONS TO VISIBILITY.

MSZ001>002-007>008-010>013-018>021-025>028-034>036-052200-
NORTHWEST MISSISSIPPI

CITY           SKY/WX    TMP DP  RH WIND       PRES   REMARKS
CLARKSDALE     FAIR      30  19  64 CALM      30.52S
CLEVELAND      FAIR      31  21  64 N17       30.51F WCI  20
GREENWOOD      MOSUNNY   33  19  56 N14G22    30.47S WCI  23
GREENVILLE     SUNNY     33  18  53 MISG      30.50S
OLIVE BRANCH   MOSUNNY   28  16  59 N17G25    30.50S WCI  16
OXFORD         FAIR      30  14  51 N16G23    30.47S WCI  19
TUNICA         CLEAR     30  19  64 N9        30.54S WCI  22
$$

MSZ003>006-009-014>017-022>024-029>033-037>039-052200-
NORTHEAST MISSISSIPPI

CITY           SKY/WX    TMP DP  RH WIND       PRES   REMARKS
COLUMBUS AFB   CLOUDY    29  24  81 N16G23    30.41S WCI  17
CORINTH        FAIR      30  14  51 N16G23    30.44S WCI  19
GOLDN TRIANGLE PTSUNNY  N/A N/A N/A N14G23    30.40S
STARKVILLE     MOCLDY    30  27  86 CALM      30.42S
TUPELO         PTSUNNY   30  16  56 NE21      30.43F WCI  17
$$

MSZ040-058-052200-
CENTRAL MISSISSIPPI

CITY           SKY/WX    TMP DP  RH WIND       PRES   REMARKS
JACKSON INTL   CLOUDY    32  24  72 N18       30.42R WCI  20
JACKSON HAWKNS PTSUNNY   30  22  72 N17G28    30.42R WCI  18
MERIDIAN KEY   CLOUDY    31  26  82 N15G24    30.38R WCI  20
MERIDIAN NAS   CLOUDY    30  26  85 N15       30.37R WCI  19
VICKSBURG      SUNNY     33  21  61 N25G32    30.48F WCI  20
$$

MSZ059>079-052200-
SOUTH MISSISSIPPI

CITY           SKY/WX    TMP DP  RH WIND       PRES   REMARKS
BROOKHAVEN     MOCLDY    30  32 100 CALM      30.39S
HATTIESBURG    LGT RAIN  35  31  85 N14G22    30.34R WCI  26
MCCOMB         CLOUDY    31  26  82 N21G28    30.35R WCI  18
NATCHEZ        PTSUNNY   30  25  80 N21G28    30.42S WCI  17
PINE BELT      CLOUDY    34  28  80 N14       30.34F WCI  24
$$

MSZ080>082-052200-
COASTAL MISSISSIPPI

CITY           SKY/WX    TMP DP  RH WIND       PRES   REMARKS
BAY ST LOUIS   CLOUDY    39  30  70 N23G35    30.27R WCI  29
BILOXI         CLOUDY    44  37  76 N22G36    30.21R
PASCAGOULA     CLOUDY    45  36  70 N22G37    30.20R
GULFPORT       CLOUDY    42  33  70 N21G36    30.22R
$$



USA.gov is the U.S. government's official web portal to all federal, state and local government web resources and services.